Home > Weather > Greensboro > Past weeks

Flag for USA Past Weather in Greensboro, North Carolina, USA — Yesterday and Last 2 Weeks

Now
89 °F

Overcast.


Feels Like: 94 °F
Forecast: 76 / 94 °F
Wind: 3 mph from North

Location: Piedmont Triad International Airport

Current Time: Jul 26, 2016 at 12:03:26 PM

Latest Report: Jul 26, 2016 at 10:54 AM


Visibility: 10 mi

Pressure: 29.99 "Hg

Humidity: 53%

Dew Point: 70 °F

Location of GreensboroLocation

Past Weather in Greensboro — Graph

°F

Greensboro Temperature Yesterday

Maximum temperature yesterday: 97 °F (at 3:54 PM)
Minimum temperature yesterday: 76 °F (at 5:54 AM)
Average temperature yesterday: 86 °F

High & Low Weather Summary for the Past Weeks

 TemperatureHumidityPressure
High97 °F (Jul 25, 3:54 PM)100% (Jul 12, 4:54 AM)30.22 "Hg (Jul 12, 4:54 AM)
Low70 °F (Jul 17, 2:59 AM)32% (Jul 24, 5:54 PM)29.91 "Hg (Jul 25, 4:54 PM)
Average82 °F68%30.05 "Hg
* Reported Jul 11 10:54 AM — Jul 26 10:54 AM, Greensboro, Weather by CustomWeather, © 2016

Note: Actual official high and low records may vary slightly from our data, if they occured in-between our weather recording intervals... More about our weather records

Advertising

Greensboro Weather History for the Previous 24 Hours

Scroll right to see more
 ConditionsComfort  
Time TempWeatherWind HumidityBarometerVisibility
10:54 AM
Tue, Jul 26
89 °FOvercast.3 mph53%29.99 "Hg10 mi
9:54 AM86 °FOvercast.6 mph63%29.99 "Hg10 mi
8:54 AM81 °FPartly sunny.8 mph74%30.00 "Hg10 mi
7:54 AM79 °FPartly sunny.8 mph77%29.99 "Hg10 mi
6:54 AM77 °FPassing clouds.5 mph82%29.98 "Hg10 mi
5:54 AM77 °FPassing clouds.6 mph82%29.97 "Hg10 mi
4:54 AM78 °FClear.5 mph79%29.96 "Hg10 mi
3:54 AM80 °FPassing clouds.8 mph71%29.96 "Hg10 mi
2:54 AM80 °FPassing clouds.9 mph71%29.95 "Hg10 mi
1:54 AM82 °FPassing clouds.9 mph67%29.96 "Hg10 mi
12:54 AM83 °FPassing clouds.9 mph65%29.97 "Hg10 mi
11:54 PM
Mon, Jul 25
84 °FPassing clouds.9 mph65%29.97 "Hg10 mi
10:54 PM83 °FPassing clouds.8 mph68%29.98 "Hg10 mi
9:54 PM85 °FClear.10 mph61%29.96 "Hg10 mi
8:54 PM86 °FBroken clouds.9 mph59%29.95 "Hg10 mi
7:54 PM89 °FBroken clouds.12 mph53%29.94 "Hg10 mi
6:54 PM93 °FBroken clouds.10 mph47%29.91 "Hg10 mi
5:54 PM95 °FBroken clouds.12 mph43%29.91 "Hg10 mi
4:54 PM96 °FBroken clouds.10 mph38%29.91 "Hg10 mi
3:54 PM97 °FMore clouds than sun.12 mph35%29.94 "Hg10 mi
2:54 PM95 °FMore clouds than sun.7 mph40%29.96 "Hg10 mi
1:54 PM94 °FMore clouds than sun.10 mph43%29.98 "Hg10 mi
12:54 PM94 °FMore clouds than sun.8 mph48%29.99 "Hg10 mi
Weather by CustomWeather, © 2016

See weather overviewHow to use our weather pages